Overview Statistics Trail Chart Weather Telemetry Raw packets
 

This is the latest recevied weather packets stored in our database for station/object KC0OOO-WX. If no packets are shown the sender has not sent any weather packets the latest 10 day(s).

<< 34 35 36 37 38 39 40 >>
Time Temp. Humidity Pressure Rain* Wind** Luminosity Snow
1777234674 11.11° C 58% 1010.2 hPa 1.02 mm - - -
1777234074 10.56° C 64% 1009.8 hPa 1.27 mm - - -
1777233474 9.44° C 64% 1009.8 hPa 1.27 mm - - -
1777232874 8.33° C 72% 1010.2 hPa 1.27 mm - - -
1777232274 7.78° C 80% 1010.2 hPa 1.27 mm - - -
1777231674 6.11° C 79% 1009.8 hPa 0.76 mm - - -
1777231074 6.67° C 72% 1009.8 hPa 0.25 mm - - -
1777230444 9.44° C 67% 1010.5 hPa 0 mm - - -
1777229814 11.11° C 70% 1010.5 hPa 0 mm - - -
1777229214 10° C 78% 1010.8 hPa 0 mm - - -
1777228614 8.89° C 77% 1010.8 hPa 0 mm - - -
1777227984 8.33° C 75% 1012.2 hPa 0 mm - - -
1777227384 8.33° C 79% 1012.2 hPa 0 mm - - -
1777226784 8.89° C 77% 1012.2 hPa 0 mm - - -
1777226184 9.44° C 73% 1012.2 hPa 0 mm - - -
1777225584 8.89° C 74% 1012.2 hPa 0 mm - - -
1777224984 7.78° C 81% 1012.2 hPa 0.51 mm - - -
1777224384 6.67° C 84% 1012.2 hPa 1.02 mm - - -
1777223785 5.56° C 86% 1012.2 hPa 1.02 mm - - -
1777223184 5.56° C 91% 1012.2 hPa 1.52 mm - - -
1777222584 5° C 90% 1012.2 hPa 1.78 mm - - -
1777221984 4.44° C 88% 1012.2 hPa 2.03 mm - - -
1777221384 5° C 89% 1012.2 hPa 1.78 mm - - -
1777220754 5° C 89% 1012.2 hPa 1.78 mm - - -
1777220124 5° C 89% 1012.2 hPa 2.03 mm - - -

* Rain latest hour (hover to see other rain measurements)
** Current wind speed in m/s (hover to see current wind gust speed)